EI8HJ Weather Reports


time (UTC)temp
C
wind
direction
speed
KPH
gust
KPH
rain 1hr
cm
rain 24hr
cm
rain mn
cm
humidity
%
barometer
mb
20260506115034 11 22 3.2 4.8 0.00 0.00 0.00 50 1015.0
20260506114035 12 31 3.2 4.8 0.00 0.00 0.00 48 1014.9
20260506113034 12 205 3.2 8.0 0.00 0.00 0.00 54 1015.0
20260506110031 12 57 1.6 3.2 0.00 0.00 0.00 49 1015.0
20260506105034 11 25 3.2 4.8 0.00 0.00 0.00 48 1015.1
20260506104034 11 50 3.2 4.8 0.00 0.00 0.00 53 1015.2
20260506103034 11 38 3.2 8.0 0.00 0.00 0.00 55 1015.2
20260506102034 11 61 3.2 8.0 0.00 0.00 0.00 56 1015.2
20260506101034 11 27 3.2 8.0 0.00 0.00 0.00 53 1015.3
20260506100031 11 35 3.2 8.0 0.00 0.00 0.00 53 1015.3
20260506095034 11 58 3.2 8.0 0.00 0.00 0.00 55 1015.4
20260506094035 11 47 3.2 8.0 0.00 0.00 0.00 55 1015.5
20260506092035 11 46 3.2 8.0 0.00 0.00 0.00 54 1015.5
20260506091034 10 23 3.2 8.0 0.00 0.00 0.00 57 1015.7
20260506090031 10 52 3.2 4.8 0.00 0.00 0.00 60 1015.8
20260506085034 10 24 3.2 4.8 0.00 0.00 0.00 55 1015.6
20260506084034 10 41 3.2 8.0 0.00 0.00 0.00 57 1015.8
20260506083035 11 37 3.2 4.8 0.00 0.00 0.00 53 1015.9
20260506082034 10 73 1.6 3.2 0.00 0.00 0.00 55 1015.8
20260506081034 10 86 1.6 4.8 0.00 0.00 0.00 57 1015.9
20260506073033 8 52 3.2 8.0 0.00 0.00 0.00 60 1016.0
20260506072032 8 95 1.6 4.8 0.00 0.00 0.00 59 1016.1
20260506071035 8 54 1.6 8.0 0.00 0.00 0.00 60 1016.1
20260506062033 8 30 1.6 8.0 0.00 0.00 0.00 59 1015.8
20260506061033 8 50 3.2 11.3 0.00 0.00 0.00 59 1015.8
20260506051034 8 127 1.6 9.7 0.00 0.00 0.00 67 1015.8
20260506045033 8 76 3.2 8.0 0.00 0.00 0.00 58 1015.9
20260506044033 7 59 1.6 4.8 0.00 0.00 0.00 61 1015.9
20260506042035 7 93 1.6 4.8 0.00 0.00 0.00 63 1016.1
20260506041034 7 91 3.2 8.0 0.00 0.00 0.00 66 1016.2
20260506040032 8 73 3.2 12.9 0.00 0.00 0.00 66 1016.3
20260506035033 8 84 6.4 12.9 0.00 0.00 0.00 65 1016.2
20260506034033 7 38 3.2 8.0 0.00 0.00 0.00 61 1016.3
20260506033033 8 42 3.2 9.7 0.00 0.00 0.00 64 1016.3
20260506032032 8 82 4.8 11.3 0.00 0.00 0.00 62 1016.3
20260506031034 8 51 3.2 12.9 0.00 0.00 0.00 65 1016.3
20260506025032 8 53 4.8 14.5 0.00 0.00 0.00 64 1016.5
20260506024033 8 112 9.7 20.9 0.00 0.00 0.00 60 1016.2
20260506023033 8 61 8.0 16.1 0.00 0.00 0.00 64 1016.3
20260506022033 8 51 8.0 16.1 0.00 0.00 0.00 64 1016.4
20260506021032 8 84 8.0 12.9 0.00 0.00 0.00 66 1016.4
20260506020031 8 64 8.0 12.9 0.00 0.00 0.00 65 1016.5
20260506015033 8 65 4.8 11.3 0.00 0.00 0.00 68 1016.5
20260506012033 8 62 4.8 9.7 0.00 0.00 0.00 66 1016.8
20260506011032 8 49 4.8 9.7 0.00 0.00 0.00 68 1017.0
20260506010032 8 38 4.8 9.7 0.00 0.00 0.00 73 1016.9
20260506005032 8 61 4.8 9.7 0.00 0.00 0.00 73 1016.8
20260506004033 8 71 4.8 11.3 0.00 0.00 0.00 72 1016.9
20260506002033 8 64 4.8 8.0 0.00 0.00 0.00 76 1016.9
20260506001033 8 67 3.2 9.7 0.00 0.00 0.00 77 1017.0
20260506000032 8 57 3.2 9.7 0.00 0.00 0.00 76 1017.2
20260505235033 8 76 3.2 8.0 0.00 0.00 0.00 77 1017.3
20260505234033 8 50 4.8 9.7 0.00 0.00 0.00 76 1017.4
20260505233033 8 72 4.8 11.3 0.00 0.00 0.00 76 1017.6
20260505232032 9 71 4.8 11.3 0.00 0.00 0.00 75 1017.5
20260505230031 9 50 4.8 14.5 0.00 0.00 0.00 75 1017.5
20260505225109 9 46 6.4 14.5 0.00 0.00 0.00 74 1017.5
20260505223024 9 82 8.0 11.3 0.00 0.00 0.00 70 1017.6
20260505222024 9 62 6.4 12.9 0.00 0.00 0.00 71 1017.6
20260505220023 10 41 4.8 12.9 0.00 0.00 0.00 73 1017.6
20260505215025 10 338 4.8 11.3 0.00 0.00 0.00 72 1017.7
20260505214025 10 53 6.4 11.3 0.00 0.00 0.00 71 1017.7
20260505213026 10 60 4.8 11.3 0.00 0.00 0.00 71 1017.8
20260505212025 10 69 3.2 9.7 0.00 0.00 0.00 71 1017.6
20260505211026 10 142 4.8 9.7 0.00 0.00 0.00 70 1017.8
20260505210025 10 133 4.8 9.7 0.00 0.00 0.00 71 1017.8
20260505205028 10 208 4.8 8.0 0.00 0.00 0.00 70 1017.6
20260505204024 10 130 4.8 9.7 0.00 0.00 0.00 70 1017.7
20260505203024 10 228 4.8 9.7 0.00 0.00 0.00 70 1017.7
20260505202028 10 232 4.8 9.7 0.00 0.00 0.00 69 1017.6
20260505201025 10 231 4.8 9.7 0.00 0.00 0.00 68 1017.8
20260505200022 10 223 4.8 8.0 0.00 0.00 0.00 70 1017.6
20260505195024 10 207 4.8 8.0 0.00 0.00 0.00 69 1017.6
20260505194024 10 201 3.2 8.0 0.00 0.00 0.00 69 1017.6
20260505192026 11 215 4.8 9.7 0.00 0.00 0.00 67 1017.6
20260505191024 11 190 6.4 11.3 0.00 0.00 0.00 66 1017.5
20260505190022 11 203 8.0 11.3 0.00 0.00 0.00 66 1017.5
20260505184023 11 223 6.4 9.7 0.00 0.00 0.00 65 1017.6
20260505183024 11 243 8.0 11.3 0.00 0.00 0.00 65 1017.5
20260505182025 11 235 8.0 11.3 0.00 0.00 0.00 64 1017.5
20260505181024 12 243 8.0 12.9 0.00 0.00 0.00 63 1017.5
20260505175025 12 206 6.4 11.3 0.00 0.00 0.00 60 1017.6
20260505174024 12 246 6.4 11.3 0.00 0.00 0.00 60 1017.8
20260505173023 12 255 4.8 11.3 0.00 0.00 0.00 60 1017.7
20260505172023 12 240 8.0 12.9 0.00 0.00 0.00 58 1017.6
20260505171022 12 256 8.0 12.9 0.00 0.00 0.00 60 1017.7
20260505165023 12 278 9.7 12.9 0.00 0.00 0.00 59 1017.8
20260505164023 12 286 8.0 19.3 0.00 0.00 0.00 58 1017.7
20260505162024 13 280 9.7 14.5 0.00 0.00 0.00 59 1017.8
20260505161024 12 267 6.4 12.9 0.00 0.00 0.00 60 1017.6
20260505153023 14 264 6.4 12.9 0.00 0.00 0.00 57 1017.9
20260505152023 12 266 6.4 12.9 0.00 0.00 0.00 60 1017.9
20260505151023 13 286 8.0 14.5 0.00 0.00 0.00 56 1018.0
20260505125027 13 213 4.8 8.0 0.00 0.00 0.00 59 1018.4
20260505124023 13 203 3.2 9.7 0.00 0.00 0.00 58 1018.3
20260505123022 13 231 4.8 11.3 0.00 0.00 0.00 61 1018.4
20260505122022 12 211 4.8 8.0 0.00 0.00 0.00 61 1018.4
20260505120021 11 199 3.2 8.0 0.00 0.00 0.00 66 1018.4